This is the latest recevied weather packets stored in our database for station/object KC9NPJ-13. If no packets are shown the sender has not sent any weather packets the latest 10 day(s).
| Time | Temp. | Humidity | Pressure | Rain* | Wind** | Luminosity | Snow |
|---|---|---|---|---|---|---|---|
| 1777472067 | 15° C | 83% | 1015.2 hPa | 0 mm | - | - | - |
| 1777471767 | 14.44° C | 81% | 1015.1 hPa | 0 mm | - | - | - |
| 1777471467 | 14.44° C | 83% | 1015.2 hPa | 0 mm | - | - | - |
| 1777471167 | 14.44° C | 87% | 1015.1 hPa | 0 mm | - | - | - |
| 1777470867 | 13.89° C | 87% | 1015.1 hPa | 0 mm | - | - | - |
| 1777470567 | 14.44° C | 87% | 1015.1 hPa | 0 mm | - | - | - |
| 1777470267 | 14.44° C | 87% | 1015.2 hPa | 0 mm | - | - | - |
| 1777469967 | 14.44° C | 90% | 1015.3 hPa | 0 mm | - | - | - |
| 1777469668 | 13.89° C | 89% | 1015.3 hPa | 0 mm | - | - | - |
| 1777469367 | 13.89° C | 89% | 1015.1 hPa | 0 mm | - | - | - |
| 1777469067 | 13.89° C | 90% | 1015 hPa | 0 mm | - | - | - |
| 1777468767 | 13.89° C | 90% | 1014.8 hPa | 0 mm | - | - | - |
| 1777468467 | 13.89° C | 90% | 1014.6 hPa | 0 mm | - | - | - |
| 1777468168 | 13.89° C | 90% | 1014.6 hPa | 0 mm | - | - | - |
| 1777467867 | 13.33° C | 90% | 1014.6 hPa | 0 mm | - | - | - |
| 1777467568 | 13.33° C | 92% | 1014.7 hPa | 0 mm | - | - | - |
| 1777467267 | 13.33° C | 93% | 1014.6 hPa | 0 mm | - | - | - |
| 1777466968 | 13.33° C | 92% | 1014.6 hPa | 0 mm | - | - | - |
| 1777466667 | 13.33° C | 93% | 1014.6 hPa | 0 mm | - | - | - |
| 1777466368 | 12.78° C | 93% | 1014.5 hPa | 0 mm | - | - | - |
| 1777466068 | 12.78° C | 94% | 1014.5 hPa | 0 mm | - | - | - |
| 1777465768 | 12.78° C | 94% | 1014.4 hPa | 0 mm | - | - | - |
| 1777465468 | 12.78° C | 94% | 1014.4 hPa | 0 mm | - | - | - |
| 1777465168 | 12.78° C | 94% | 1014.3 hPa | 0 mm | - | - | - |
| 1777464868 | 12.22° C | 94% | 1014.3 hPa | 0 mm | - | - | - |
* Rain latest hour (hover to see other rain measurements)
** Current wind speed in m/s (hover to see current wind gust speed)